Tracking 35274 objects as of 10-Sep-2026
HD Live streaming from Space Station
objects crossing your sky now

MEASAT 3D

Track MEASAT 3D now!
MEASAT 3D is classified as:


NORAD ID: 52904
Int'l Code: 2022-067B
Launch date: June 22, 2022
Source: Malaysia (MALA)
Launch site: FRENCH GUIANA (FRGUI)
Your satellite tracking list
Your tracking list is empty




NASA's NSSDC Master Catalog

Two Line Element Set (TLE):
1 52904U 22067B   26253.12058722 -.00000262  00000-0  00000-0 0  9993
2 52904   0.0365 329.9261 0001366 271.6327 242.5006  1.00273593 15502
Source of the keplerian elements: AFSPC